Location: Newark
(50.1751°N, 5.6239°W)
Time: 19:51:00
(UTC+00:00)

ISS - Visible Passes

Search period start: 25 September 2021 00:00
Search period end: 05 October 2021 00:00
Orbit: 417 x 423 km, 51.6° (Epoch: 25 September)

Date Brightness Start Highest point End Pass type
(mag) Time Alt. Az. Time Alt. Az. Time Alt. Az.
25 Sep -3.6 19:48:23 10° W 19:51:45 66° N 19:52:52 37° ENE visible
25 Sep -0.6 21:25:16 10° WNW 21:25:50 14° WNW 21:25:50 14° WNW visible
26 Sep -3.5 19:01:02 10° W 19:04:24 66° N 19:07:19 13° E visible
26 Sep -2.5 20:37:58 10° WNW 20:40:17 41° WNW 20:40:17 41° WNW visible
27 Sep -3.8 19:50:39 10° WNW 19:54:02 79° NNE 19:54:45 52° E visible
27 Sep -0.4 21:27:35 10° W 21:27:42 11° W 21:27:42 11° W visible
28 Sep -3.6 19:03:20 10° WNW 19:06:42 70° N 19:09:13 17° E visible
28 Sep -1.9 20:40:13 10° WNW 20:42:11 30° W 20:42:11 30° W visible
29 Sep -3.7 19:52:54 10° WNW 19:56:15 67° SSW 19:56:41 58° SSE visible
30 Sep -3.8 19:05:35 10° WNW 19:08:57 86° SSW 19:11:13 20° ESE visible
30 Sep -1.3 20:42:41 10° W 20:44:11 19° WSW 20:44:11 19° WSW visible
01 Oct -2.7 19:55:13 10° W 19:58:19 34° SSW 19:58:46 33° SSW visible
02 Oct -3.1 19:07:49 10° WNW 19:11:07 48° SSW 19:13:25 17° SE visible
02 Oct -0.6 20:46:13 10° WSW 20:46:23 10° WSW 20:46:23 10° WSW visible
03 Oct -1.4 19:57:58 10° W 20:00:13 17° SW 20:01:07 15° SSW visible
04 Oct -1.8 19:10:18 10° W 19:13:04 24° SW 19:15:52 10° SSE visible
